Universal City, TX

2:24 PM CDT on September 26, 2016 (GMT -0500)
Randolph Air Force Base

Weather History for KRND - January, 2013

Change the Weather History Date:

Thursday, January 3, 2013

  Actual Average Record
Temperature  
Mean Temperature 42 °F -  
Max Temperature 46 °F 61 °F 82 °F (2006)
Min Temperature 38 °F 41 °F 24 °F (2002)
Degree Days  
Heating Degree Days 23    
Moisture  
Dew Point 30 °F    
Average Humidity 61    
Maximum Humidity 78    
Minimum Humidity 50    
Precipitation  
Precipitation 0.00 in - - ()
Sea Level Pressure  
Sea Level Pressure 30.39 in    
Wind  
Wind Speed 9 mph (NNE)    
Max Wind Speed 15 mph    
Max Gust Speed 17 mph    
Visibility 10 miles    
Events Rain    
Averages and records for this station are not official NWS values.
T = Trace of Precipitation, MM = Missing Value Source: NWS Daily Summary

Daily Weather History Graph

Daily Weather History Graph

Search for Another Location

Airport or City:

Trip Planner

Search our weather history database for the weather conditions in past years. The results will help you decide how hot, cold, wet, or windy it might be!

Date:

Astronomy

Jan. 03, 2013 Rise Set
Actual Time 7:28 AM CST 5:47 PM CST
Civil Twilight 7:02 AM CST 6:13 PM CST
Nautical Twilight 6:32 AM CST 6:42 PM CST
Astronomical Twilight 6:03 AM CST 7:11 PM CST
Moon 11:51 PM CST (1/3) 11:10 AM CST (1/3)
Length of Visible Light 11h 10m
Length of Day
10h 18m
Waning Gibbous, 65% of the Moon is Illuminated
Jan 3
Waning Gibbous
Jan 4
Last Quarter
Jan 11
New
Jan 18
First Quarter
Jan 26
Full

Hourly Weather History & Observations

Time (CST) Temp. Windchill Dew Point Humidity Pressure Visibility Wind Dir Wind Speed Gust Speed Precip Events Conditions
12:55 AM 39.2 °F 35.9 °F 32.7 °F 78% 30.31 in 10.0 mi NNE 4.6 mph - N/A   Overcast
1:55 AM 38.8 °F 33.8 °F 31.3 °F 74% 30.31 in 10.0 mi North 6.9 mph - N/A   Overcast
2:55 AM 38.8 °F 34.6 °F 30.4 °F 72% 30.32 in 10.0 mi NNE 5.8 mph - N/A   Overcast
3:55 AM 38.7 °F 32.9 °F 30.4 °F 72% 30.35 in 10.0 mi NNE 8.1 mph - N/A   Overcast
4:55 AM 38.8 °F 33.8 °F 30.0 °F 71% 30.36 in 10.0 mi NNE 6.9 mph - N/A   Overcast
5:55 AM 38.8 °F 33.8 °F 30.0 °F 71% 30.34 in 10.0 mi NNE 6.9 mph - N/A   Overcast
6:55 AM 39.2 °F 35.0 °F 29.7 °F 69% 30.37 in 10.0 mi NNE 5.8 mph - N/A   Overcast
7:55 AM 39.6 °F 33.5 °F 28.8 °F 65% 30.39 in 10.0 mi NNE 9.2 mph - N/A   Overcast
8:43 AM 41.0 °F 33.9 °F 28.4 °F 61% 30.40 in 10.0 mi NNE 12.7 mph - N/A Rain Light Rain
8:45 AM 41.0 °F 34.3 °F 28.4 °F 61% 30.39 in 10.0 mi NNE 11.5 mph - N/A Rain Light Rain
8:55 AM 40.1 °F 33.6 °F 28.8 °F 64% 30.41 in 10.0 mi NNE 10.4 mph - 0.00 in Rain Light Rain
9:55 AM 40.5 °F 33.6 °F 30.0 °F 66% 30.44 in 10.0 mi NNE 11.5 mph - 0.00 in Rain Light Rain
10:17 AM 41.0 °F 35.2 °F 30.2 °F 65% 30.45 in 10.0 mi NNE 9.2 mph - N/A   Scattered Clouds
10:55 AM 42.3 °F 36.3 °F 30.2 °F 62% 30.45 in 10.0 mi North 10.4 mph - 0.00 in   Partly Cloudy
11:25 AM 42.8 °F 36.6 °F 30.2 °F 61% 30.45 in 10.0 mi North 11.5 mph - N/A Rain Light Rain
11:55 AM 44.1 °F 37.4 °F 28.2 °F 54% 30.43 in 10.0 mi NNE 13.8 mph - 0.00 in   Overcast
12:42 PM 44.6 °F 38.1 °F 28.4 °F 53% 30.41 in 10.0 mi North 13.8 mph - N/A Rain Light Rain
12:55 PM 45.5 °F 39.6 °F 28.6 °F 52% 30.40 in 10.0 mi North 12.7 mph 17.3 mph 0.00 in   Overcast
1:17 PM 44.6 °F 38.8 °F 28.4 °F 53% 30.39 in 10.0 mi NNE 11.5 mph - N/A Rain Light Rain
1:35 PM 44.6 °F 39.7 °F 30.2 °F 57% 30.37 in 10.0 mi North 9.2 mph - N/A   Mostly Cloudy
1:55 PM 44.6 °F 39.7 °F 28.2 °F 53% 30.38 in 10.0 mi North 9.2 mph - 0.00 in   Overcast
2:55 PM 46.0 °F 40.6 °F 28.8 °F 51% 30.37 in 10.0 mi North 11.5 mph - 0.00 in Rain Light Rain
3:07 PM 46.4 °F 41.1 °F 28.4 °F 50% 30.37 in 10.0 mi NNE 11.5 mph - N/A   Mostly Cloudy
3:55 PM 45.9 °F 39.4 °F 29.3 °F 52% 30.38 in 10.0 mi North 15.0 mph - 0.00 in   Overcast
4:55 PM 45.7 °F 39.8 °F 29.1 °F 52% 30.38 in 10.0 mi North 12.7 mph - N/A   Overcast
5:55 PM 45.3 °F 41.1 °F 30.9 °F 57% 30.40 in 10.0 mi NNE 8.1 mph - N/A   Overcast
6:55 PM 44.6 °F 40.2 °F 31.1 °F 59% 30.41 in 10.0 mi North 8.1 mph - N/A   Overcast
7:55 PM 44.2 °F 38.4 °F 30.4 °F 58% 30.42 in 10.0 mi NNE 11.5 mph - N/A   Overcast
8:55 PM 43.5 °F 38.3 °F 30.2 °F 59% 30.40 in 10.0 mi NNE 9.2 mph - N/A   Overcast
9:55 PM 43.7 °F 39.1 °F 30.2 °F 59% 30.41 in 10.0 mi NNE 8.1 mph - N/A   Overcast
10:55 PM 43.5 °F 38.3 °F 30.9 °F 61% 30.41 in 10.0 mi NNE 9.2 mph - N/A   Overcast
11:55 PM 43.3 °F 38.6 °F 31.3 °F 62% 30.40 in 10.0 mi North 8.1 mph - N/A   Overcast